Terminal Aerodrome Forecast
Issued by NWS Twin Cities, MN

Home | Current Version | Previous Version | Graphics & Text | Print | Product List | Glossary On
Versions: 1 2 3 4 5 6 7 8 9 10 11 12
000
FTUS43 KMPX 121700
TAFSTC
TAF
KSTC 121723Z 1218/1318 33007KT P6SM VCSH SCT040 BKN060
     FM130000 VRB02KT P6SM SKC
     FM131400 20007KT P6SM FEW200=

USA.gov is the U.S. government's official web portal to all federal, state and local government web resources and services.